[[{"header":{"parameterUnit":"m.s-1","parameterCategory":1,"la1":30.2991,"la2":30.254,"lo1":-89.0895,"lo2":-89.0444,"dy":0.0017,"dx":0.0017,"nx":28,"ny":28,"refTime":"2023-09-21T09:00:00:Z","depth":0,"parameterNumber":2,"parameterNumberName":"U-component_of_WINDS"},"data":[0,0,0,0,0,0,0,0,0,0,0,0,0,0,0,0,0,0,0,0,0,0,0,0,0,0,0,0,0,0,0,0,0,0,0,0,0,0,0,0,0,0,0,0,0,0,0,0,0,0,0,0,0,0,0,0,0,0,-1.45,-1.45,0,-1.4513,-1.4514,-1.4514,-1.4465,-1.4463,-1.4462,-1.446,-1.4473,-1.4475,-1.4476,0,0,0,0,0,0,0,0,0,0,0,0,0,-1.443,-1.4431,-1.45,-1.45,-1.45,-1.4513,-1.4514,-1.4514,-1.4465,-1.4463,-1.4461,-1.446,-1.4473,-1.4475,-1.4477,0,0,0,0,0,0,0,0,0,0,0,0,0,-1.4453,-1.4432,-1.45,-1.4477,-1.4475,-1.4513,-1.4514,-1.4514,-1.4465,-1.4463,-1.4461,-1.4459,-1.4472,-1.4474,-1.4477,-1.4537,0,0,-1.4485,-1.4486,0,0,0,0,0,0,0,0,-1.4452,-1.4456,-1.4481,-1.4479,-1.4477,-1.4485,-1.4493,-1.4521,-1.4466,-1.4469,-1.446,-1.4458,-1.4479,-1.4481,-1.4488,-1.4537,-1.4538,-1.4485,-1.4487,-1.4488,-1.4488,0,0,0,0,0,0,0,-1.445,-1.4455,-1.4505,-1.4481,-1.4479,-1.4466,-1.4467,-1.4499,-1.4486,-1.4469,-1.4465,-1.4467,-1.4477,-1.4486,-1.4488,-1.4538,-1.4485,-1.4487,-1.4489,-1.449,-1.4636,-1.4638,0,0,0,0,0,0,-1.4452,-1.4454,-1.4505,-1.4506,-1.4459,-1.4469,-1.447,-1.4485,-1.4486,-1.4484,-1.4469,-1.4465,-1.4482,-1.4485,-1.4488,-1.4558,-1.4488,-1.449,-1.4492,-1.4634,-1.4636,-1.4639,0,0,0,0,0,0,-1.4451,-1.4457,-1.4504,-1.4479,-1.4484,-1.4473,-1.4489,-1.4486,-1.4494,-1.4486,-1.4483,-1.448,-1.4481,-1.4485,-1.4525,-1.4558,-1.4491,-1.4494,-1.4631,-1.4634,-1.4638,-1.4698,0,0,0,0,0,0,-1.4449,-1.4457,-1.448,-1.448,-1.4485,-1.4541,-1.4491,-1.4488,-1.4499,-1.4494,-1.4496,-1.4494,-1.4479,-1.4521,-1.4527,-1.456,-1.4496,-1.4628,-1.4632,-1.4637,-1.4693,-1.4703,-1.4712,0,0,0,0,0,-1.4447,-1.4497,-1.4482,-1.4488,-1.4514,-1.4543,-1.4547,-1.4529,-1.4502,-1.4525,-1.4519,-1.4494,-1.4553,-1.4526,-1.4532,-1.4566,-1.4626,-1.4631,-1.4636,-1.4689,-1.4701,-1.4712,0,0,0,0,0,0,-1.4501,-1.4496,-1.4479,-1.4531,-1.4538,-1.4535,-1.4564,-1.4543,-1.4558,-1.4552,-1.4529,-1.453,-1.4574,-1.4574,-1.4544,-1.4623,-1.4584,-1.4591,-1.4622,-1.4634,-1.4643,-1.4643,-1.4498,0,0,0,0,0,-1.4519,-1.4544,-1.4538,-1.4584,-1.4588,-1.4575,-1.4587,-1.4573,-1.4579,-1.4582,-1.458,-1.4586,-1.4606,-1.462,-1.4638,-1.4692,-1.4692,-1.4719,-1.4728,-1.4736,-1.4742,-1.477,-1.4782,-1.4656,-1.4656,-1.4656,0,0,-1.4557,-1.4557,-1.4574,-1.4595,-1.4598,-1.4624,-1.4578,-1.4607,-1.4625,-1.4586,-1.4624,-1.4623,-1.4628,-1.4676,-1.4697,-1.4677,-1.4777,-1.4742,-1.4749,-1.4751,-1.4777,-1.4789,-1.48,-1.466,-1.4659,-1.4659,0,0,-1.4638,-1.4641,-1.4679,-1.4684,-1.469,-1.4681,-1.469,-1.469,-1.4687,-1.4725,-1.4696,-1.4717,-1.4752,-1.4757,-1.4764,-1.4846,-1.4823,-1.4852,-1.4902,-1.493,-1.494,-1.4948,-1.4977,-1.4988,-1.4859,-1.4859,-1.4859,0,-1.4684,-1.4722,-1.4702,-1.4732,-1.4742,-1.4707,-1.4745,-1.4751,-1.4762,-1.477,-1.4747,-1.479,-1.4791,-1.4839,-1.4859,-1.4866,-1.4875,-1.4853,-1.494,-1.4948,-1.4956,-1.4984,-1.4995,-1.4862,-1.4862,-1.4862,-1.4861,0,-1.4778,-1.4804,-1.4834,-1.4846,-1.4859,-1.4893,-1.4878,-1.4893,-1.4877,-1.487,-1.4908,-1.4909,-1.4926,-1.4936,-1.4921,-1.4982,-1.4969,-1.4944,-1.4904,-1.4972,-1.4997,-1.5008,-1.4867,-1.4866,-1.4865,-1.4864,0,0,-1.4896,-1.4895,-1.4906,-1.4911,-1.4914,-1.4934,-1.4966,-1.4983,-1.4996,-1.5005,-1.5031,-1.5061,-1.5037,-1.5045,-1.503,-1.5055,-1.5119,-1.5026,-1.5026,-1.5043,-1.5186,-1.5205,-1.5218,-1.5103,-1.5105,-1.5107,-1.5185,0,-1.4975,-1.5031,-1.5013,-1.5069,-1.5093,-1.5059,-1.5087,-1.5092,-1.5086,-1.5104,-1.5097,-1.5119,-1.5086,-1.509,-1.5113,-1.5107,-1.5147,-1.51,-1.5127,-1.5129,-1.5128,-1.5231,-1.5252,-1.5326,-1.5195,-1.5197,-1.5198,0,-1.5077,-1.5089,-1.5148,-1.5146,-1.5156,-1.5181,-1.5194,-1.5213,-1.5217,-1.521,-1.5219,-1.5199,-1.5229,-1.5189,-1.5231,-1.5199,-1.5209,-1.5207,-1.521,-1.5212,-1.5168,-1.5237,-1.5349,-1.5361,-1.5213,-1.5212,-1.5211,0,-1.5157,-1.5188,-1.5227,-1.5232,-1.5231,-1.525,-1.525,-1.5252,-1.5263,-1.5275,-1.5281,-1.5296,-1.5304,-1.5316,-1.53,-1.5272,-1.5343,-1.5302,-1.5339,-1.534,-1.5357,-1.5356,-1.5473,-1.5362,-1.5362,-1.5362,-1.5361,0,-1.5249,-1.5286,-1.5263,-1.5287,-1.5327,-1.5305,-1.5346,-1.5342,-1.5344,-1.5366,-1.5338,-1.5359,-1.5336,-1.5355,-1.5342,-1.5379,-1.5382,-1.5378,-1.5374,-1.5381,-1.5382,-1.5388,-1.5382,-1.5364,-1.5364,-1.5363,-1.5363,0,-1.5346,-1.5332,-1.5372,-1.5368,-1.5367,-1.5397,-1.5393,-1.5414,-1.5406,-1.5434,-1.5439,-1.5426,-1.5447,-1.5431,-1.5452,-1.5443,-1.5491,-1.548,-1.549,-1.5487,-1.5525,-1.5522,-1.5651,-1.5666,-1.5545,-1.5546,-1.5547,0,-1.5406,-1.5433,-1.5431,-1.5444,-1.5447,-1.5468,-1.5478,-1.5457,-1.547,-1.5476,-1.5497,-1.5515,-1.5529,-1.5563,-1.5555,-1.557,-1.5559,-1.5603,-1.5562,-1.5567,-1.556,-1.5559,-1.5562,-1.5612,-1.5614,-1.5615,-1.5616,0,-1.5513,-1.5505,-1.5521,-1.5536,-1.5549,-1.5559,-1.5567,-1.5579,-1.5558,-1.5573,-1.5593,-1.5604,-1.5625,-1.5643,-1.5655,-1.5655,-1.5632,-1.5629,-1.5638,-1.5646,-1.5651,-1.5649,-1.5514,-1.5626,-1.5625,-1.5624,-1.5624,-1.5623,-1.5594,-1.5616,-1.5619,-1.5638,-1.5641,-1.5649,-1.5669,-1.5662,-1.5679,-1.5694,-1.5681,-1.5706,-1.5708,-1.5722,-1.5724,-1.5743,-1.5725,-1.5739,-1.5742,-1.5746,-1.5752,-1.5647,-1.5745,-1.5745,-1.5745,-1.5744,-1.5744,0,-1.57,-1.5699,-1.5717,-1.5729,-1.5744,-1.572,-1.5727,-1.5741,-1.5763,-1.5767,-1.5781,-1.5805,-1.5822,-1.5815,-1.583,-1.5846,-1.5836,-1.5851,-1.585,-1.585,-1.5767,-1.5758,-1.5859,-1.5859,-1.5859,-1.5859,-1.5859,-1.5859,-1.5757,-1.5794,-1.5786,-1.5824,-1.5823,-1.5847,-1.5853,-1.586,-1.5863,-1.589,-1.5904,-1.5899,-1.5899,-1.5913,-1.5928,-1.5925,-1.5932,-1.5951,-1.5945,-1.5868,-1.5856,-1.5846,-1.5836,-1.5953,-1.5953,-1.6027,-1.6027,-1.6028]},{"header":{"parameterUnit":"m.s-1","parameterCategory":1,"la1":30.2991,"la2":30.254,"lo1":-89.0895,"lo2":-89.0444,"dy":0.0017,"dx":0.0017,"nx":28,"ny":28,"refTime":"2023-09-21T09:00:00:Z","depth":0,"parameterNumber":3,"parameterNumberName":"V-component_of_WINDS"},"data":[0,0,0,0,0,0,0,0,0,0,0,0,0,0,0,0,0,0,0,0,0,0,0,0,0,0,0,0,0,0,0,0,0,0,0,0,0,0,0,0,0,0,0,0,0,0,0,0,0,0,0,0,0,0,0,0,0,0,-0.6129,-0.613,0,-0.6244,-0.6245,-0.6246,-0.6314,-0.6315,-0.6315,-0.6315,-0.6431,-0.6434,-0.6437,0,0,0,0,0,0,0,0,0,0,0,0,0,-0.5966,-0.5969,-0.6129,-0.613,-0.6132,-0.6243,-0.6245,-0.6246,-0.6314,-0.6315,-0.6315,-0.6315,-0.643,-0.6434,-0.6437,0,0,0,0,0,0,0,0,0,0,0,0,0,-0.6054,-0.597,-0.6128,-0.6179,-0.6185,-0.6243,-0.6245,-0.6247,-0.6314,-0.6315,-0.6315,-0.6315,-0.6429,-0.6433,-0.6438,-0.6454,0,0,-0.645,-0.6452,0,0,0,0,0,0,0,0,-0.6049,-0.606,-0.617,-0.6176,-0.6182,-0.6265,-0.623,-0.6316,-0.6314,-0.6265,-0.6315,-0.6316,-0.6376,-0.6384,-0.6405,-0.646,-0.6465,-0.6451,-0.6453,-0.6455,-0.6456,0,0,0,0,0,0,0,-0.6043,-0.6056,-0.6174,-0.6172,-0.6179,-0.6195,-0.6208,-0.6247,-0.6316,-0.6269,-0.6274,-0.6287,-0.6379,-0.64,-0.6408,-0.6467,-0.6451,-0.6454,-0.6457,-0.6459,-0.6541,-0.654,0,0,0,0,0,0,-0.6029,-0.605,-0.6171,-0.6178,-0.6115,-0.6198,-0.6212,-0.6238,-0.6316,-0.6328,-0.6287,-0.629,-0.6393,-0.6403,-0.6412,-0.6437,-0.6455,-0.6459,-0.6462,-0.6541,-0.6541,-0.654,0,0,0,0,0,0,-0.6025,-0.6039,-0.6166,-0.6115,-0.6133,-0.62,-0.6228,-0.624,-0.6262,-0.6329,-0.6342,-0.6296,-0.6394,-0.6406,-0.6443,-0.6442,-0.6461,-0.6465,-0.6541,-0.6541,-0.654,-0.6487,0,0,0,0,0,0,-0.602,-0.6037,-0.6045,-0.6115,-0.6135,-0.6196,-0.6228,-0.6242,-0.6269,-0.6274,-0.6341,-0.6353,-0.6395,-0.6437,-0.6448,-0.6448,-0.6468,-0.6542,-0.6541,-0.6541,-0.6489,-0.6485,-0.6481,0,0,0,0,0,-0.6014,-0.6025,-0.6045,-0.6059,-0.6146,-0.6195,-0.6207,-0.6256,-0.6268,-0.6276,-0.632,-0.6351,-0.644,-0.644,-0.6453,-0.6455,-0.6542,-0.6541,-0.6541,-0.6491,-0.6485,-0.6481,0,0,0,0,0,0,-0.5954,-0.6036,-0.6059,-0.6093,-0.6136,-0.6207,-0.6218,-0.6248,-0.6289,-0.6292,-0.6351,-0.6365,-0.6396,-0.6429,-0.6427,-0.6475,-0.6495,-0.6496,-0.6452,-0.6448,-0.6444,-0.6436,-0.6472,0,0,0,0,0,-0.5944,-0.5978,-0.6047,-0.6071,-0.6091,-0.6151,-0.6174,-0.6208,-0.6255,-0.6274,-0.632,-0.6365,-0.6403,-0.6427,-0.6466,-0.6494,-0.6509,-0.6501,-0.6497,-0.6493,-0.6494,-0.6511,-0.6508,-0.6538,-0.6538,-0.6538,0,0,-0.5925,-0.5974,-0.5992,-0.6059,-0.6098,-0.613,-0.6166,-0.62,-0.6224,-0.6279,-0.6317,-0.6352,-0.6406,-0.6438,-0.6455,-0.6466,-0.6489,-0.6492,-0.6489,-0.6492,-0.651,-0.6507,-0.6505,-0.6537,-0.6537,-0.6537,0,0,-0.5907,-0.5947,-0.5971,-0.6009,-0.6066,-0.6105,-0.611,-0.6176,-0.6201,-0.624,-0.6282,-0.6312,-0.6377,-0.6413,-0.644,-0.6434,-0.6464,-0.6445,-0.6424,-0.6439,-0.6437,-0.6435,-0.6434,-0.6432,-0.6446,-0.6446,-0.6445,0,-0.5876,-0.5928,-0.598,-0.6011,-0.6039,-0.609,-0.6114,-0.6147,-0.6214,-0.6232,-0.6244,-0.6326,-0.6366,-0.6407,-0.6405,-0.6425,-0.6433,-0.6438,-0.6433,-0.6432,-0.6431,-0.643,-0.6429,-0.6443,-0.6443,-0.6443,-0.6444,0,-0.5887,-0.5922,-0.5935,-0.5998,-0.6027,-0.6055,-0.6109,-0.6133,-0.6163,-0.6201,-0.6239,-0.6288,-0.6338,-0.635,-0.638,-0.6396,-0.6401,-0.6422,-0.6444,-0.6425,-0.6425,-0.6425,-0.6439,-0.644,-0.6441,-0.6441,0,0,-0.5836,-0.5927,-0.593,-0.5959,-0.6025,-0.6053,-0.6082,-0.6131,-0.615,-0.6193,-0.6219,-0.6272,-0.6291,-0.6322,-0.6356,-0.637,-0.6362,-0.639,-0.6392,-0.6383,-0.6382,-0.6366,-0.6365,-0.6382,-0.6382,-0.6382,-0.6378,0,-0.5829,-0.5884,-0.593,-0.5968,-0.6001,-0.6049,-0.6074,-0.6117,-0.6152,-0.6185,-0.6224,-0.626,-0.6284,-0.6302,-0.6318,-0.636,-0.6363,-0.6361,-0.6407,-0.6408,-0.6393,-0.6365,-0.6349,-0.6343,-0.6378,-0.6378,-0.6378,0,-0.5828,-0.587,-0.5911,-0.5973,-0.5988,-0.601,-0.6058,-0.6088,-0.6137,-0.6162,-0.6195,-0.6231,-0.6263,-0.628,-0.6325,-0.6322,-0.6343,-0.6366,-0.6367,-0.6374,-0.6392,-0.6372,-0.6342,-0.6341,-0.6379,-0.6379,-0.6379,0,-0.5787,-0.5853,-0.5886,-0.591,-0.5983,-0.5997,-0.6028,-0.6077,-0.6103,-0.6144,-0.6162,-0.6206,-0.623,-0.6264,-0.631,-0.6318,-0.635,-0.6371,-0.6372,-0.637,-0.6377,-0.6376,-0.6351,-0.6389,-0.6389,-0.6389,-0.6389,0,-0.5774,-0.5798,-0.5869,-0.589,-0.5917,-0.5969,-0.5994,-0.6029,-0.6072,-0.61,-0.6143,-0.6168,-0.6228,-0.626,-0.6296,-0.6328,-0.6338,-0.6359,-0.6369,-0.6356,-0.6353,-0.6371,-0.6373,-0.6389,-0.6389,-0.6389,-0.6389,0,-0.5734,-0.5783,-0.5822,-0.5887,-0.5904,-0.5921,-0.5977,-0.5998,-0.6035,-0.607,-0.6081,-0.6139,-0.6179,-0.6228,-0.6283,-0.6308,-0.6336,-0.635,-0.6319,-0.6325,-0.6323,-0.6323,-0.6309,-0.631,-0.6347,-0.6346,-0.6346,0,-0.5723,-0.5742,-0.5809,-0.5831,-0.5861,-0.5895,-0.5922,-0.5973,-0.5999,-0.6055,-0.6069,-0.6112,-0.615,-0.621,-0.6258,-0.63,-0.6316,-0.6308,-0.6323,-0.6309,-0.6317,-0.6315,-0.6317,-0.6305,-0.6304,-0.6303,-0.6303,0,-0.5699,-0.5722,-0.5759,-0.5804,-0.5834,-0.5872,-0.5912,-0.5927,-0.5986,-0.6012,-0.6054,-0.6082,-0.6138,-0.6181,-0.6229,-0.626,-0.6291,-0.6298,-0.63,-0.6288,-0.627,-0.628,-0.631,-0.6298,-0.6299,-0.6299,-0.6299,-0.6299,-0.5674,-0.5693,-0.5743,-0.5782,-0.5817,-0.5853,-0.5876,-0.5916,-0.5951,-0.6001,-0.6029,-0.6069,-0.6116,-0.6184,-0.6214,-0.6246,-0.6258,-0.6261,-0.6262,-0.6263,-0.6259,-0.6263,-0.6255,-0.6255,-0.6255,-0.6256,-0.6256,0,-0.5652,-0.5686,-0.5722,-0.5776,-0.5807,-0.5833,-0.5877,-0.5901,-0.5936,-0.5978,-0.6013,-0.606,-0.6101,-0.615,-0.6194,-0.621,-0.6225,-0.622,-0.622,-0.6227,-0.6246,-0.6239,-0.6207,-0.6207,-0.6207,-0.6207,-0.6207,-0.6207,-0.5645,-0.5679,-0.5707,-0.5758,-0.5792,-0.5832,-0.5855,-0.5888,-0.5921,-0.5972,-0.6005,-0.6037,-0.6082,-0.613,-0.6168,-0.6181,-0.6196,-0.6186,-0.6204,-0.6221,-0.6225,-0.6229,-0.6224,-0.6189,-0.6188,-0.6182,-0.6182,-0.6182]}]]